sat.trackr.live / text

‹ back to catalog

ONEWEB-0360

NORAD 49286 · 2021-090H

PAYLOAD ACTIVE UNKNOWN

§ Identity

Operator
Country
UK
Launch date
2021-10-14
Launch site
VOSTO
Launch vehicle
Mass (kg)
RCS (m²)

Purposes: comms

External: N2YO · Heavens-Above · Gunter

§ Orbital elements

Epoch: 2026-05-24T21:50:27.559680Z

Period
109.03 min
Inclination
87.9175°
Eccentricity
0.0001960
Mean motion
13.20772882 rev/d
Perigee alt
1,180.3 km
Apogee alt
1,183.3 km
Semi-major
7,559.9 km
B*
-1.1652e-4
RAAN
279.0815°
Arg perigee
104.5957°
Mean anomaly
255.5393°
Rev number
22,677

§ Raw data

ONEWEB-03601 49286U 21090H   26144.91004120 -.00000034  00000+0 -11652-3 0  99912 49286  87.9175 279.0815 0001960 104.5957 255.5393 13.20772882226773

JSON: /api/v1/satellites/49286 · /tle

For live sub-satellite position, see the globe view (requires WebGL).

§ Visibility from observer

Set your observer location to see the next 7 days of passes ≥ 10°. The values pass through the URL so the page stays shareable.

No JS? Fill the form by hand. The geolocation button needs JavaScript.